INMARSAT 5-F2 (40384 NORAD) Tracking and Keplerian Element Data

This shows tracking and keplerian element data for the satellite.

Feedback or suggestion? Click here.




ElementValue
Catalog40384
NameINMARSAT 5-F2
Epoch Orbit1513
Epoch Day145.8266959
Epoch Year2019
RAAN327.4015
Inclination0.0164
Eccentricity2.18E-05
Argument of Perigee127.6634
Mean Anonmoly30.6598
Mean Motion1.00272457
Decay Rate-2.89E-06
L11 40384U 15005A 19145.82669590 -.00000289 00000-0 00000-0 0 9995
L22 40384 0.0164 327.4015 0000218 127.6634 30.6598 1.00272457 15133

Live tracking and technical data element details for INMARSAT 5-F2 (NORAD 40384). INMARSAT 5-F2 can be tracked NOW for your location showing map with azimuth and elevation plus other details from your city location.

Track the satellite on the map from your city or location and see movement details for azimuth, elevation, latitude, longitude, range, height, and movement on the map or in text.







IsCatalogInMostPopularTable: catalog: 40384, numindb: 234
Update: records affected: 1



GetName: 40384 INMARSAT 5-F2

Hit Count: updated at: Sun, 26 May 2019 19:38:41 GMT